Regional Weather Roundup
Issued by NWS

Home | Current Version | Previous Version | Graphics & Text | Print | Product List | Glossary On
Versions: 1 2 3 4 5 6 7 8 9 10 11 12 13 14 15 16 17 18 19 20 21 22 23 24 25 26 27 28 29 30 31 32 33 34 35 36 37 38 39 40 41 42 43 44 45 46 47 48 49 50
000
ASUS45 KABQ 282001
RWRNM
NEW MEXICO REGIONAL WEATHER ROUNDUP
NATIONAL WEATHER SERVICE ALBUQUERQUE NM
200 PM MDT WED JUN 28 2017

NOTE: "FAIR" MEANS FEW OR NO CLOUDS BELOW 12,000 FEET AGL WITH NO
       SIGNIFICANT WEATHER OR OBSTRUCTIONS TO VISION.

      THIS PRODUCT IS RELEASED AS TWO VERSIONS.  ONE VERSION NEAR
      THE TOP OF THE HOUR CONTAINING PRELIMINARY DATA FROM ALBUQUERQUE
      AND OTHER STATIONS.  A FINAL VERSION WITH ADDITIONAL DATA IS
      ISSUED ABOUT 10 MINUTES AFTER THE HOUR.

NMZ501-503-504-510>518-282100-
NORTHWEST PLATEAU/NORTHCENTRAL MOUNTAINS

CITY           SKY/WX    TMP DP  RH WIND       PRES   REMARKS
FARMINGTON     FAIR      92  12   5 NW12G18   29.97F
LOS ALAMOS     FAIR      83  17   8 SW9G21    30.13F
SANTA FE       FAIR      90  16   6 VRB6G25   30.05F
TAOS           FAIR      84  23  10 W15G26    30.11F
ANGEL FIRE     FAIR      73  30  20 W18       30.21F

$$
NMZ402-403-502-505>509-282100-
WESTCENTRAL MOUNTAINS/SOUTHWEST MOUNTAINS

CITY           SKY/WX    TMP DP  RH WIND       PRES   REMARKS
GALLUP         FAIR      87  10   5 W20G30    30.11F
GRANTS         FAIR      89  11   5 NW16G30   30.12F
SILVER CITY    FAIR      90  28  11 W17G28    30.09F

$$
NMZ407-409-411-412-282100-
SOUTHERN DESERTS

CITY           SKY/WX    TMP DP  RH WIND       PRES   REMARKS
DEMING         FAIR      97  25   7 NW13G23   29.99F
LAS CRUCES     FAIR      97  23   7 W14G24    29.99F
HOLLOMAN AFB   FAIR      99  18   5 NW8G16    29.96F
ALAMOGORDO     FAIR      95  18   6 SW10G18   29.97F
T OR C         FAIR      96  22   7 VRB7      29.98F

$$
NMZ519>523-282100-
CENTRAL VALLEYS/CENTRAL HIGHLANDS

CITY           SKY/WX    TMP DP  RH WIND       PRES   REMARKS
ALBUQUERQUE    FAIR      92  15   6 W9        30.00F
DOUBLE EAGLE   SUNNY     91  19   7 W8G162    30.04F
MORIARTY ARPT  FAIR      90  23   9 W16       30.08F
CLINES CORNERS FAIR      84  16   8 W15G29    30.12F
BELEN          NOT AVBL
SOCORRO        FAIR      93  27   9 SE12      29.99F

$$
NMZ524>526-539-540-282100-
SOUTHCENTRAL MOUNTAINS

CITY           SKY/WX    TMP DP  RH WIND       PRES   REMARKS
RUIDOSO        FAIR      84  27  12 W12G23    30.16F

$$
NMZ527>531-282100-
NORTHEAST HIGHLANDS/NORTHEAST PLAINS

CITY           SKY/WX    TMP DP  RH WIND       PRES   REMARKS
RATON          FAIR      92  19   7 SW16G33   29.97F
CLAYTON        FAIR      88  45  22 VRB6G17   29.92F

$$
NMZ532>537-282100-
EASTCENTRAL PLAINS

CITY           SKY/WX    TMP DP  RH WIND       PRES   REMARKS
SANTA ROSA     FAIR      97  23   7 W13G29    29.90F
TUCUMCARI      FAIR     101  34   9 SE9G16    29.81F HX  95
CANNON AFB     FAIR      94  42  16 W8G17     29.91F
CLOVIS AIRPORT FAIR      97  41  14 SW7G18    29.90F

$$
NMZ028-029-538-282100-
SOUTHEAST PLAINS

CITY           SKY/WX    TMP DP  RH WIND       PRES   REMARKS
ROSWELL        FAIR     101  43  13 E7        29.86F HX  96
ARTESIA        DRIZZLE  100  46  16 SE8       29.85F HX  96
CARLSBAD       FAIR     100  50  18 CALM      29.83F HX  97
HOBBS          SUNNY     95  54  24 S7        29.91F


$$




USA.gov is the U.S. government's official web portal to all federal, state and local government web resources and services.